Time,TemperatureF,DewpointF,PressureIn,WindDirection,WindDirectionDegrees,WindSpeedMPH,WindSpeedGustMPH,Humidity,HourlyPrecipIn,Conditions,Clouds,dailyrainin,SoftwareType,DateUTC
2013-03-14 00:03:00,24.6,15.6,30.29,West,270,0.0,0.0,68,0.00,OVC,FEW,0.01,WeatherDisplay:10.37,2013-03-14 05:03:00,
2013-03-14 00:08:00,24.6,15.6,30.29,West,270,0.0,0.0,68,0.00,OVC,FEW,0.01,WeatherDisplay:10.37,2013-03-14 05:08:00,
2013-03-14 00:14:00,24.6,15.9,30.30,West,270,0.0,0.0,69,0.00,OVC,FEW,0.01,WeatherDisplay:10.37,2013-03-14 05:14:00,
2013-03-14 00:19:00,24.4,15.4,30.29,West,270,0.0,0.0,68,0.00,OVC,FEW,0.01,WeatherDisplay:10.37,2013-03-14 05:19:00,
2013-03-14 00:25:00,24.1,15.4,30.29,West,270,0.0,0.0,69,0.00,OVC,FEW,0.01,WeatherDisplay:10.37,2013-03-14 05:25:00,
2013-03-14 00:31:00,23.9,15.5,30.28,West,270,0.0,0.0,70,0.00,OVC,FEW,0.01,WeatherDisplay:10.37,2013-03-14 05:31:00,
2013-03-14 00:36:00,23.7,15.4,30.29,West,270,0.0,0.0,70,0.00,OVC,FEW,0.01,WeatherDisplay:10.37,2013-03-14 05:36:00,
2013-03-14 00:42:00,23.4,15.0,30.29,West,270,0.0,0.0,70,0.00,OVC,FEW,0.01,WeatherDisplay:10.37,2013-03-14 05:42:00,
2013-03-14 00:47:00,23.4,15.3,30.29,West,270,0.0,0.0,71,0.00,OVC,FEW,0.01,WeatherDisplay:10.37,2013-03-14 05:47:00,
2013-03-14 00:53:00,23.2,15.2,30.28,West,270,0.0,0.0,71,0.00,OVC,FEW,0.01,WeatherDisplay:10.37,2013-03-14 05:53:00,
2013-03-14 00:59:00,23.2,15.5,30.28,West,270,0.0,0.0,72,0.00,OVC,FEW,0.01,WeatherDisplay:10.37,2013-03-14 05:59:00,
2013-03-14 01:04:00,23.0,15.6,30.28,West,270,0.0,0.0,73,0.00,RA,FEW,0.00,WeatherDisplay:10.37,2013-03-14 06:04:00,
2013-03-14 01:10:00,23.0,15.9,30.28,West,270,0.0,0.0,74,0.00,RA,FEW,0.00,WeatherDisplay:10.37,2013-03-14 06:10:00,
2013-03-14 01:15:00,23.0,16.3,30.28,West,270,0.0,0.0,75,0.00,OVC,FEW,0.00,WeatherDisplay:10.37,2013-03-14 06:15:00,
2013-03-14 01:21:00,23.0,16.3,30.28,West,270,0.0,0.0,75,0.00,OVC,FEW,0.00,WeatherDisplay:10.37,2013-03-14 06:21:00,
2013-03-14 01:27:00,22.8,15.8,30.28,West,270,0.0,0.0,74,0.00,OVC,FEW,0.00,WeatherDisplay:10.37,2013-03-14 06:27:00,
2013-03-14 01:32:00,22.5,15.7,30.28,West,270,0.0,0.0,75,0.00,OVC,FEW,0.00,WeatherDisplay:10.37,2013-03-14 06:32:00,
2013-03-14 01:38:00,22.5,15.7,30.28,West,270,0.0,0.0,75,0.00,OVC,FEW,0.00,WeatherDisplay:10.37,2013-03-14 06:38:00,
2013-03-14 01:43:00,22.6,16.2,30.28,West,270,0.0,0.0,76,0.00,OVC,FEW,0.00,WeatherDisplay:10.37,2013-03-14 06:43:00,
2013-03-14 01:49:00,22.5,16.0,30.28,West,270,0.0,0.0,76,0.00,OVC,FEW,0.00,WeatherDisplay:10.37,2013-03-14 06:49:00,
2013-03-14 01:55:00,22.8,16.7,30.28,West,270,0.0,0.0,77,0.00,OVC,FEW,0.00,WeatherDisplay:10.37,2013-03-14 06:55:00,
2013-03-14 02:00:00,23.0,16.9,30.28,West,270,0.0,0.0,77,0.00,OVC,FEW,0.00,WeatherDisplay:10.37,2013-03-14 07:00:00,
2013-03-14 02:06:00,22.8,16.7,30.27,West,270,0.0,0.0,77,0.00,OVC,FEW,0.00,WeatherDisplay:10.37,2013-03-14 07:06:00,
2013-03-14 02:11:00,22.8,16.7,30.28,West,270,0.0,0.0,77,0.00,OVC,FEW,0.00,WeatherDisplay:10.37,2013-03-14 07:11:00,
2013-03-14 02:17:00,23.0,16.9,30.27,West,270,0.0,0.0,77,0.00,OVC,FEW,0.00,WeatherDisplay:10.37,2013-03-14 07:17:00,
2013-03-14 02:23:00,23.0,16.9,30.28,West,270,0.0,0.0,77,0.00,OVC,FEW,0.00,WeatherDisplay:10.37,2013-03-14 07:23:00,
2013-03-14 02:28:00,23.0,16.9,30.27,West,270,0.0,0.0,77,0.00,OVC,FEW,0.00,WeatherDisplay:10.37,2013-03-14 07:28:00,
2013-03-14 02:34:00,23.0,16.9,30.27,West,270,0.0,0.0,77,0.00,OVC,FEW,0.00,WeatherDisplay:10.37,2013-03-14 07:34:00,
2013-03-14 02:39:00,23.2,17.3,30.26,West,270,0.0,0.0,78,0.00,OVC,FEW,0.00,WeatherDisplay:10.37,2013-03-14 07:39:00,
2013-03-14 02:45:00,23.4,17.5,30.26,West,270,0.0,0.0,78,0.00,OVC,FEW,0.00,WeatherDisplay:10.37,2013-03-14 07:45:00,
2013-03-14 02:51:00,23.4,17.5,30.26,East,90,0.0,0.0,78,0.00,OVC,FEW,0.00,WeatherDisplay:10.37,2013-03-14 07:51:00,
2013-03-14 02:56:00,23.4,17.5,30.25,East,90,0.0,0.0,78,0.00,OVC,FEW,0.00,WeatherDisplay:10.37,2013-03-14 07:56:00,
2013-03-14 03:02:00,23.4,17.5,30.26,NW,315,0.0,0.0,78,0.00,OVC,FEW,0.00,WeatherDisplay:10.37,2013-03-14 08:02:00,
2013-03-14 03:07:00,23.4,17.5,30.25,NW,315,0.0,0.0,78,0.00,OVC,FEW,0.00,WeatherDisplay:10.37,2013-03-14 08:07:00,
2013-03-14 03:13:00,23.5,17.7,30.25,NW,315,0.0,0.0,78,0.00,OVC,FEW,0.00,WeatherDisplay:10.37,2013-03-14 08:13:00,
2013-03-14 03:19:00,23.5,17.7,30.25,NW,315,0.0,0.0,78,0.00,OVC,FEW,0.00,WeatherDisplay:10.37,2013-03-14 08:19:00,
2013-03-14 03:24:00,23.5,17.7,30.25,NE,45,0.0,0.0,78,0.00,OVC,FEW,0.00,WeatherDisplay:10.37,2013-03-14 08:24:00,
2013-03-14 03:30:00,23.7,17.9,30.25,NE,45,0.0,0.0,78,0.00,OVC,FEW,0.00,WeatherDisplay:10.37,2013-03-14 08:30:00,
2013-03-14 03:35:00,23.7,17.9,30.25,NE,45,0.0,0.0,78,0.00,OVC,FEW,0.00,WeatherDisplay:10.37,2013-03-14 08:35:00,
2013-03-14 03:41:00,23.7,17.9,30.24,NE,45,0.0,0.0,78,0.00,OVC,FEW,0.00,WeatherDisplay:10.37,2013-03-14 08:41:00,
2013-03-14 03:47:00,23.7,17.9,30.24,East,90,0.0,0.0,78,0.00,OVC,FEW,0.00,WeatherDisplay:10.37,2013-03-14 08:47:00,
2013-03-14 03:52:00,23.7,17.9,30.24,East,90,0.0,0.0,78,0.00,OVC,FEW,0.00,WeatherDisplay:10.37,2013-03-14 08:52:00,
2013-03-14 03:58:00,23.7,17.9,30.23,East,90,0.0,0.0,78,0.00,OVC,FEW,0.00,WeatherDisplay:10.37,2013-03-14 08:58:00,
2013-03-14 04:03:00,23.7,18.2,30.23,East,90,0.0,0.0,79,0.00,OVC,FEW,0.00,WeatherDisplay:10.37,2013-03-14 09:03:00,
2013-03-14 04:09:00,23.7,18.2,30.22,East,90,0.0,0.0,79,0.00,OVC,FEW,0.00,WeatherDisplay:10.37,2013-03-14 09:09:00,
2013-03-14 04:15:00,24.1,18.5,30.23,East,90,0.0,0.0,79,0.00,OVC,FEW,0.00,WeatherDisplay:10.37,2013-03-14 09:15:00,
2013-03-14 04:20:00,24.3,18.7,30.22,East,90,0.0,0.0,79,0.00,OVC,FEW,0.00,WeatherDisplay:10.37,2013-03-14 09:20:00,
2013-03-14 04:27:00,24.4,18.9,30.22,East,90,0.0,0.0,79,0.00,OVC,FEW,0.00,WeatherDisplay:10.37,2013-03-14 09:27:00,
2013-03-14 04:32:00,24.4,18.6,30.22,East,90,0.0,0.0,78,0.00,OVC,FEW,0.00,WeatherDisplay:10.37,2013-03-14 09:32:00,
2013-03-14 04:38:00,24.6,18.7,30.22,East,90,0.0,0.0,78,0.00,OVC,FEW,0.00,WeatherDisplay:10.37,2013-03-14 09:38:00,
2013-03-14 04:43:00,24.6,18.4,30.21,East,90,0.0,0.0,77,0.00,OVC,FEW,0.00,WeatherDisplay:10.37,2013-03-14 09:43:00,
2013-03-14 04:49:00,24.8,18.6,30.21,East,90,0.0,0.0,77,0.00,OVC,FEW,0.00,WeatherDisplay:10.37,2013-03-14 09:49:00,
2013-03-14 04:55:00,25.0,18.8,30.21,East,90,0.0,0.0,77,0.00,OVC,FEW,0.00,WeatherDisplay:10.37,2013-03-14 09:55:00,
2013-03-14 05:00:00,25.0,18.5,30.21,SE,135,0.0,0.0,76,0.00,OVC,FEW,0.00,WeatherDisplay:10.37,2013-03-14 10:00:00,
2013-03-14 05:06:00,25.0,18.5,30.21,SE,135,0.0,0.0,76,0.00,OVC,FEW,0.00,WeatherDisplay:10.37,2013-03-14 10:06:00,
2013-03-14 05:11:00,25.3,18.2,30.21,SE,135,0.0,0.0,74,0.00,OVC,FEW,0.00,WeatherDisplay:10.37,2013-03-14 10:11:00,
2013-03-14 05:17:00,25.5,18.1,30.22,SW,225,0.0,0.0,73,0.00,OVC,FEW,0.00,WeatherDisplay:10.37,2013-03-14 10:17:00,
2013-03-14 05:23:00,25.5,18.1,30.23,SW,225,0.0,0.0,73,0.00,OVC,FEW,0.00,WeatherDisplay:10.37,2013-03-14 10:23:00,
2013-03-14 05:28:00,25.7,17.9,30.23,East,90,0.0,0.0,72,0.00,OVC,FEW,0.00,WeatherDisplay:10.37,2013-03-14 10:28:00,
2013-03-14 05:34:00,25.9,17.8,30.22,SE,135,0.0,0.0,71,0.00,OVC,FEW,0.00,WeatherDisplay:10.37,2013-03-14 10:34:00,
2013-03-14 05:39:00,25.9,17.4,30.22,East,90,0.0,0.0,70,0.00,OVC,FEW,0.00,WeatherDisplay:10.37,2013-03-14 10:39:00,
2013-03-14 05:45:00,25.9,17.4,30.22,East,90,0.0,0.0,70,0.00,OVC,FEW,0.00,WeatherDisplay:10.37,2013-03-14 10:45:00,
2013-03-14 05:51:00,26.1,17.3,30.22,East,90,0.0,0.0,69,0.00,OVC,FEW,0.00,WeatherDisplay:10.37,2013-03-14 10:51:00,
2013-03-14 05:56:00,26.1,17.3,30.23,SE,135,0.0,0.0,69,0.00,OVC,FEW,0.00,WeatherDisplay:10.37,2013-03-14 10:56:00,
2013-03-14 06:02:00,26.1,17.3,30.23,SE,135,0.0,0.0,69,0.00,OVC,FEW,0.00,WeatherDisplay:10.37,2013-03-14 11:02:00,
2013-03-14 06:07:00,26.2,17.1,30.22,East,90,0.0,0.0,68,0.00,OVC,FEW,0.00,WeatherDisplay:10.37,2013-03-14 11:07:00,
2013-03-14 06:13:00,26.2,17.1,30.22,East,90,0.0,0.0,68,0.00,OVC,FEW,0.00,WeatherDisplay:10.37,2013-03-14 11:13:00,
2013-03-14 06:19:00,26.4,16.9,30.23,East,90,0.0,0.0,67,0.00,OVC,FEW,0.00,WeatherDisplay:10.37,2013-03-14 11:19:00,
2013-03-14 06:24:00,26.4,16.9,30.22,SE,135,0.0,0.0,67,0.00,OVC,FEW,0.00,WeatherDisplay:10.37,2013-03-14 11:24:00,
2013-03-14 06:30:00,26.4,16.9,30.22,East,90,0.0,0.0,67,0.00,OVC,FEW,0.00,WeatherDisplay:10.37,2013-03-14 11:30:00,
2013-03-14 06:35:00,26.4,16.6,30.23,East,90,0.0,0.0,66,0.00,OVC,FEW,0.00,WeatherDisplay:10.37,2013-03-14 11:35:00,
2013-03-14 06:41:00,26.6,16.4,30.23,East,90,0.0,2.3,65,0.00,OVC,FEW,0.00,WeatherDisplay:10.37,2013-03-14 11:41:00,
2013-03-14 06:47:00,26.4,16.2,30.23,East,90,0.0,0.7,65,0.00,OVC,FEW,0.00,WeatherDisplay:10.37,2013-03-14 11:47:00,
2013-03-14 06:52:00,26.6,16.4,30.23,SE,135,0.0,2.3,65,0.00,OVC,FEW,0.00,WeatherDisplay:10.37,2013-03-14 11:52:00,
2013-03-14 06:58:00,26.6,16.4,30.23,SW,225,0.0,0.0,65,0.00,OVC,FEW,0.00,WeatherDisplay:10.37,2013-03-14 11:58:00,
2013-03-14 07:03:00,26.6,16.8,30.23,SE,135,0.0,0.0,66,0.00,OVC,FEW,0.00,WeatherDisplay:10.37,2013-03-14 12:03:00,
2013-03-14 07:09:00,26.6,16.8,30.22,East,90,0.0,2.3,66,0.00,OVC,FEW,0.00,WeatherDisplay:10.37,2013-03-14 12:09:00,
2013-03-14 07:15:00,26.8,16.6,30.22,SE,135,0.7,3.5,65,0.00,OVC,FEW,0.00,WeatherDisplay:10.37,2013-03-14 12:15:00,
2013-03-14 07:20:00,26.8,16.6,30.22,SE,135,0.7,2.3,65,0.00,OVC,FEW,0.00,WeatherDisplay:10.37,2013-03-14 12:20:00,
2013-03-14 07:27:00,27.0,16.4,30.22,East,90,1.6,3.5,64,0.00,OVC,FEW,0.00,WeatherDisplay:10.37,2013-03-14 12:27:00,
2013-03-14 07:33:00,27.0,16.4,30.22,SE,135,1.6,3.8,64,0.00,OVC,FEW,0.00,WeatherDisplay:10.37,2013-03-14 12:33:00,
2013-03-14 07:39:00,27.1,16.6,30.22,SE,135,1.6,3.8,64,0.00,OVC,FEW,0.00,WeatherDisplay:10.37,2013-03-14 12:39:00,
2013-03-14 07:44:00,27.1,16.9,30.22,East,90,0.0,2.3,65,0.00,OVC,FEW,0.00,WeatherDisplay:10.37,2013-03-14 12:44:00,
2013-03-14 07:50:00,27.1,16.9,30.22,South,180,0.7,3.5,65,0.00,OVC,FEW,0.00,WeatherDisplay:10.37,2013-03-14 12:50:00,
2013-03-14 07:55:00,27.5,17.3,30.22,SE,135,0.7,5.8,65,0.00,OVC,FEW,0.00,WeatherDisplay:10.37,2013-03-14 12:55:00,
2013-03-14 08:01:00,27.5,17.3,30.22,SE,135,0.0,3.5,65,0.00,OVC,FEW,0.00,WeatherDisplay:10.37,2013-03-14 13:01:00,
2013-03-14 08:07:00,27.7,17.8,30.22,East,90,0.0,1.6,66,0.00,OVC,FEW,0.00,WeatherDisplay:10.37,2013-03-14 13:07:00,
2013-03-14 08:12:00,27.9,17.6,30.22,ESE,112,1.6,4.6,65,0.00,OVC,FEW,0.00,WeatherDisplay:10.37,2013-03-14 13:12:00,
2013-03-14 08:18:00,28.0,17.8,30.22,South,180,0.7,3.1,65,0.00,OVC,FEW,0.00,WeatherDisplay:10.37,2013-03-14 13:18:00,
2013-03-14 08:23:00,28.2,17.2,30.22,SSE,158,1.6,3.5,63,0.00,OVC,FEW,0.00,WeatherDisplay:10.37,2013-03-14 13:23:00,
2013-03-14 08:29:00,28.4,17.8,30.22,SE,135,1.6,3.5,64,0.00,OVC,FEW,0.00,WeatherDisplay:10.37,2013-03-14 13:29:00,
2013-03-14 08:35:00,28.6,17.9,30.21,SE,135,1.6,3.5,64,0.00,OVC,FEW,0.00,WeatherDisplay:10.37,2013-03-14 13:35:00,
2013-03-14 08:40:00,29.1,18.1,30.21,South,180,1.6,4.6,63,0.00,OVC,FEW,0.00,WeatherDisplay:10.37,2013-03-14 13:40:00,
2013-03-14 08:46:00,29.3,17.9,30.21,SE,135,2.2,5.8,62,0.00,OVC,FEW,0.00,WeatherDisplay:10.37,2013-03-14 13:46:00,
2013-03-14 08:51:00,29.5,18.4,30.22,SE,135,0.7,2.2,63,0.00,OVC,FEW,0.00,WeatherDisplay:10.37,2013-03-14 13:51:00,
2013-03-14 08:57:00,29.7,18.2,30.21,South,180,1.6,3.5,62,0.00,OVC,FEW,0.00,WeatherDisplay:10.37,2013-03-14 13:57:00,
2013-03-14 09:03:00,29.5,18.1,30.20,East,90,2.2,4.6,62,0.00,OVC,FEW,0.00,WeatherDisplay:10.37,2013-03-14 14:03:00,
2013-03-14 09:08:00,29.5,18.1,30.21,SE,135,2.2,3.8,62,0.00,OVC,FEW,0.00,WeatherDisplay:10.37,2013-03-14 14:08:00,
2013-03-14 09:14:00,29.7,18.6,30.20,South,180,1.6,3.1,63,0.00,OVC,FEW,0.00,WeatherDisplay:10.37,2013-03-14 14:14:00,
2013-03-14 09:19:00,29.8,18.8,30.20,SE,135,2.2,3.8,63,0.00,OVC,FEW,0.00,WeatherDisplay:10.37,2013-03-14 14:19:00,
2013-03-14 09:25:00,30.0,18.6,30.20,South,180,1.6,3.5,62,0.00,OVC,FEW,0.00,WeatherDisplay:10.37,2013-03-14 14:25:00,
2013-03-14 09:31:00,30.0,18.6,30.19,East,90,0.7,3.5,62,0.00,OVC,FEW,0.00,WeatherDisplay:10.37,2013-03-14 14:31:00,
2013-03-14 09:36:00,30.2,18.7,30.19,SE,135,2.2,3.5,62,0.00,OVC,FEW,0.00,WeatherDisplay:10.37,2013-03-14 14:36:00,
2013-03-14 09:42:00,30.2,18.7,30.19,SE,135,0.7,3.5,62,0.00,OVC,FEW,0.00,WeatherDisplay:10.37,2013-03-14 14:42:00,
2013-03-14 09:47:00,30.6,19.5,30.18,SE,135,1.6,3.5,63,0.00,OVC,FEW,0.00,WeatherDisplay:10.37,2013-03-14 14:47:00,
2013-03-14 09:53:00,30.7,19.2,30.18,SE,135,1.6,5.8,62,0.00,OVC,FEW,0.00,WeatherDisplay:10.37,2013-03-14 14:53:00,
2013-03-14 09:59:00,31.1,19.6,30.19,South,180,1.6,4.5,62,0.00,OVC,FEW,0.00,WeatherDisplay:10.37,2013-03-14 14:59:00,
2013-03-14 10:04:00,31.5,19.9,30.18,SE,135,1.6,4.6,62,0.00,OVC,FEW,0.00,WeatherDisplay:10.37,2013-03-14 15:04:00,
2013-03-14 10:10:00,31.8,20.3,30.17,SE,135,1.6,3.8,62,0.00,OVC,FEW,0.00,WeatherDisplay:10.37,2013-03-14 15:10:00,
2013-03-14 10:15:00,32.0,20.1,30.17,SE,135,2.2,5.8,61,0.00,OVC,FEW,0.00,WeatherDisplay:10.37,2013-03-14 15:15:00,
2013-03-14 10:21:00,32.4,20.8,30.16,SE,135,1.6,5.8,62,0.00,OVC,FEW,0.00,WeatherDisplay:10.37,2013-03-14 15:21:00,
2013-03-14 10:27:00,32.7,20.4,30.16,SE,135,1.6,5.8,60,0.00,OVC,FEW,0.00,WeatherDisplay:10.37,2013-03-14 15:27:00,
2013-03-14 10:32:00,32.9,20.5,30.16,South,180,0.7,4.6,60,0.00,OVC,FEW,0.00,WeatherDisplay:10.37,2013-03-14 15:32:00,
2013-03-14 10:38:00,32.9,20.1,30.17,SE,135,3.1,6.0,59,0.00,OVC,FEW,0.00,WeatherDisplay:10.37,2013-03-14 15:38:00,
2013-03-14 10:43:00,32.9,20.1,30.17,SE,135,1.6,3.5,59,0.00,OVC,FEW,0.00,WeatherDisplay:10.37,2013-03-14 15:43:00,
2013-03-14 10:49:00,32.7,20.4,30.18,SW,225,0.0,5.8,60,0.00,OVC,FEW,0.00,WeatherDisplay:10.37,2013-03-14 15:49:00,
2013-03-14 10:55:00,32.9,20.1,30.19,SE,135,0.7,2.3,59,0.00,OVC,FEW,0.00,WeatherDisplay:10.37,2013-03-14 15:55:00,
2013-03-14 11:00:00,33.1,20.7,30.19,SE,135,1.6,3.8,60,0.00,OVC,FEW,0.00,WeatherDisplay:10.37,2013-03-14 16:00:00,
2013-03-14 11:06:00,33.1,20.7,30.19,East,90,2.2,3.5,60,0.00,OVC,FEW,0.00,WeatherDisplay:10.37,2013-03-14 16:06:00,
2013-03-14 11:11:00,34.0,21.1,30.18,South,180,1.6,3.5,59,0.00,OVC,FEW,0.00,WeatherDisplay:10.37,2013-03-14 16:11:00,
2013-03-14 11:17:00,34.5,20.8,30.16,East,90,3.1,5.8,57,0.00,OVC,FEW,0.00,WeatherDisplay:10.37,2013-03-14 16:17:00,
2013-03-14 11:23:00,34.7,20.6,30.15,South,180,3.1,4.6,56,0.00,OVC,FEW,0.00,WeatherDisplay:10.37,2013-03-14 16:23:00,
2013-03-14 11:28:00,35.4,21.7,30.14,South,180,1.6,4.6,57,0.00,OVC,FEW,0.00,WeatherDisplay:10.37,2013-03-14 16:28:00,
2013-03-14 11:34:00,36.1,21.1,30.14,East,90,3.8,6.9,54,0.00,OVC,FEW,0.00,WeatherDisplay:10.37,2013-03-14 16:34:00,
2013-03-14 11:39:00,37.2,21.6,30.13,East,90,1.6,4.6,53,0.00,OVC,FEW,0.00,WeatherDisplay:10.37,2013-03-14 16:39:00,
2013-03-14 11:45:00,38.1,22.5,30.12,SW,225,2.2,4.6,53,0.00,OVC,FEW,0.00,WeatherDisplay:10.37,2013-03-14 16:45:00,
2013-03-14 11:51:00,39.6,22.0,30.12,NE,45,2.2,5.8,49,0.00,OVC,FEW,0.00,WeatherDisplay:10.37,2013-03-14 16:51:00,
2013-03-14 11:56:00,40.3,21.6,30.11,SE,135,3.1,6.9,47,0.00,OVC,FEW,0.00,WeatherDisplay:10.37,2013-03-14 16:56:00,
2013-03-14 12:02:00,40.1,21.0,30.11,SE,135,4.5,4.5,46,0.00,OVC,FEW,0.00,WeatherDisplay:10.37,2013-03-14 17:02:00,
2013-03-14 12:07:00,39.7,21.6,30.10,East,90,1.6,5.8,48,0.00,OVC,FEW,0.00,WeatherDisplay:10.37,2013-03-14 17:07:00,
2013-03-14 12:13:00,41.0,22.3,30.09,South,180,2.2,5.8,47,0.00,OVC,FEW,0.00,WeatherDisplay:10.37,2013-03-14 17:13:00,
2013-03-14 12:19:00,41.0,21.3,30.09,East,90,4.5,8.3,45,0.00,OVC,FEW,0.00,WeatherDisplay:10.37,2013-03-14 17:19:00,
2013-03-14 12:24:00,41.2,22.5,30.09,East,90,0.7,10.4,47,0.00,OVC,FEW,0.00,WeatherDisplay:10.37,2013-03-14 17:24:00,
2013-03-14 12:30:00,41.9,21.5,30.10,South,180,2.2,6.9,44,0.00,OVC,FEW,0.00,WeatherDisplay:10.37,2013-03-14 17:30:00,
2013-03-14 12:35:00,41.4,21.1,30.09,SE,135,1.6,5.8,44,0.00,OVC,FEW,0.00,WeatherDisplay:10.37,2013-03-14 17:35:00,
2013-03-14 12:41:00,42.6,21.7,30.09,SE,135,5.4,8.1,43,0.00,OVC,FEW,0.00,WeatherDisplay:10.37,2013-03-14 17:41:00,
2013-03-14 12:47:00,43.0,22.5,30.09,South,180,2.2,8.1,44,0.00,OVC,FEW,0.00,WeatherDisplay:10.37,2013-03-14 17:47:00,
2013-03-14 12:52:00,43.7,22.6,30.09,SW,225,2.2,5.8,43,0.00,OVC,FEW,0.00,WeatherDisplay:10.37,2013-03-14 17:52:00,
2013-03-14 12:58:00,44.2,22.6,30.08,NE,45,1.6,5.8,42,0.00,OVC,FEW,0.00,WeatherDisplay:10.37,2013-03-14 17:58:00,
2013-03-14 13:08:00,44.1,21.3,30.08,East,90,3.1,6.0,40,0.00,OVC,FEW,0.00,WeatherDisplay:10.37,2013-03-14 18:08:00,
2013-03-14 13:13:00,44.8,21.9,30.08,East,90,2.2,4.6,40,0.00,OVC,FEW,0.00,WeatherDisplay:10.37,2013-03-14 18:13:00,
2013-03-14 13:19:00,45.9,21.7,30.08,SW,225,3.8,6.9,38,0.00,OVC,FEW,0.00,WeatherDisplay:10.37,2013-03-14 18:19:00,
2013-03-14 13:25:00,45.3,20.5,30.08,East,90,3.8,11.5,37,0.00,OVC,FEW,0.00,WeatherDisplay:10.37,2013-03-14 18:25:00,
2013-03-14 13:30:00,44.1,21.3,30.07,SE,135,3.1,6.9,40,0.00,OVC,FEW,0.00,WeatherDisplay:10.37,2013-03-14 18:30:00,
2013-03-14 13:36:00,44.6,22.3,30.07,SSW,202,6.0,9.8,41,0.00,OVC,FEW,0.00,WeatherDisplay:10.37,2013-03-14 18:36:00,
2013-03-14 13:41:00,43.7,21.5,30.08,South,180,0.0,4.6,41,0.00,OVC,FEW,0.00,WeatherDisplay:10.37,2013-03-14 18:41:00,
2013-03-14 13:47:00,44.2,22.6,30.08,South,180,3.1,5.8,42,0.00,OVC,FEW,0.00,WeatherDisplay:10.37,2013-03-14 18:47:00,
2013-03-14 13:53:00,45.0,23.2,30.08,SW,225,2.2,6.0,42,0.00,OVC,FEW,0.00,WeatherDisplay:10.37,2013-03-14 18:53:00,
2013-03-14 13:58:00,45.1,22.2,30.08,SSE,158,3.1,5.8,40,0.00,OVC,FEW,0.00,WeatherDisplay:10.37,2013-03-14 18:58:00,
2013-03-14 14:04:00,46.4,23.4,30.06,East,90,4.5,9.2,40,0.00,OVC,FEW,0.00,WeatherDisplay:10.37,2013-03-14 19:04:00,
2013-03-14 14:09:00,46.6,23.5,30.06,SE,135,3.8,8.1,40,0.00,OVC,FEW,0.00,WeatherDisplay:10.37,2013-03-14 19:09:00,
2013-03-14 14:15:00,46.0,23.6,30.06,South,180,2.2,8.1,41,0.00,OVC,FEW,0.00,WeatherDisplay:10.37,2013-03-14 19:15:00,
2013-03-14 14:21:00,46.0,24.2,30.06,SE,135,3.1,8.1,42,0.00,OVC,FEW,0.00,WeatherDisplay:10.37,2013-03-14 19:21:00,
2013-03-14 14:26:00,46.0,23.6,30.06,SE,135,4.5,6.9,41,0.00,OVC,FEW,0.00,WeatherDisplay:10.37,2013-03-14 19:26:00,
2013-03-14 14:32:00,45.9,24.0,30.06,East,90,2.2,8.1,42,0.00,OVC,FEW,0.00,WeatherDisplay:10.37,2013-03-14 19:32:00,
2013-03-14 14:37:00,46.2,24.4,30.06,South,180,3.8,8.3,42,0.00,OVC,FEW,0.00,WeatherDisplay:10.37,2013-03-14 19:37:00,
2013-03-14 14:43:00,46.9,24.4,30.06,SE,135,2.2,9.2,41,0.00,OVC,FEW,0.00,WeatherDisplay:10.37,2013-03-14 19:43:00,
2013-03-14 14:49:00,47.7,25.1,30.06,SW,225,3.1,5.8,41,0.00,OVC,FEW,0.00,WeatherDisplay:10.37,2013-03-14 19:49:00,
2013-03-14 14:54:00,47.7,24.5,30.07,SW,225,2.2,5.8,40,0.00,OVC,FEW,0.00,WeatherDisplay:10.37,2013-03-14 19:54:00,
2013-03-14 15:00:00,47.5,24.3,30.07,East,90,1.6,6.9,40,0.00,OVC,FEW,0.00,WeatherDisplay:10.37,2013-03-14 20:00:00,
2013-03-14 15:05:00,48.2,25.0,30.06,NNE,22,3.1,8.1,40,0.00,OVC,FEW,0.00,WeatherDisplay:10.37,2013-03-14 20:05:00,
2013-03-14 15:11:00,48.6,25.9,30.06,East,90,0.7,5.8,41,0.00,OVC,FEW,0.00,WeatherDisplay:10.37,2013-03-14 20:11:00,
2013-03-14 15:17:00,48.7,25.5,30.05,South,180,1.6,6.9,40,0.00,OVC,FEW,0.00,WeatherDisplay:10.37,2013-03-14 20:17:00,
2013-03-14 15:22:00,47.8,24.7,30.05,SE,135,2.2,8.1,40,0.00,OVC,FEW,0.00,WeatherDisplay:10.37,2013-03-14 20:22:00,
2013-03-14 15:28:00,48.0,24.8,30.05,East,90,3.1,8.1,40,0.00,OVC,FEW,0.00,WeatherDisplay:10.37,2013-03-14 20:28:00,
2013-03-14 15:33:00,48.6,26.5,30.05,SE,135,1.6,3.5,42,0.00,OVC,FEW,0.00,WeatherDisplay:10.37,2013-03-14 20:33:00,
2013-03-14 15:39:00,49.5,26.1,30.05,NE,45,2.2,4.6,40,0.00,OVC,FEW,0.00,WeatherDisplay:10.37,2013-03-14 20:39:00,
2013-03-14 15:45:00,48.9,25.0,30.05,East,90,3.8,9.2,39,0.00,OVC,FEW,0.00,WeatherDisplay:10.37,2013-03-14 20:45:00,
2013-03-14 15:50:00,48.6,25.3,30.04,East,90,2.2,8.1,40,0.00,OVC,FEW,0.00,WeatherDisplay:10.37,2013-03-14 20:50:00,
2013-03-14 15:57:00,48.9,26.8,30.04,South,180,0.7,5.8,42,0.00,OVC,FEW,0.00,WeatherDisplay:10.37,2013-03-14 20:57:00,
2013-03-14 16:02:00,49.1,25.8,30.04,SE,135,1.6,6.9,40,0.00,OVC,FEW,0.00,WeatherDisplay:10.37,2013-03-14 21:02:00,
2013-03-14 16:08:00,48.7,25.5,30.04,East,90,0.7,8.1,40,0.00,OVC,FEW,0.00,WeatherDisplay:10.37,2013-03-14 21:08:00,
2013-03-14 16:13:00,49.6,26.9,30.05,South,180,0.7,3.5,41,0.00,OVC,FEW,0.00,WeatherDisplay:10.37,2013-03-14 21:13:00,
2013-03-14 16:19:00,49.1,25.2,30.04,East,90,2.2,8.1,39,0.00,OVC,FEW,0.00,WeatherDisplay:10.37,2013-03-14 21:19:00,
2013-03-14 16:25:00,49.6,26.3,30.05,SE,135,1.6,4.6,40,0.00,OVC,FEW,0.00,WeatherDisplay:10.37,2013-03-14 21:25:00,
2013-03-14 16:30:00,50.0,26.6,30.05,SE,135,2.2,5.8,40,0.00,OVC,FEW,0.00,WeatherDisplay:10.37,2013-03-14 21:30:00,
2013-03-14 16:37:00,49.8,25.8,30.05,SE,135,3.1,5.4,39,0.00,OVC,FEW,0.00,WeatherDisplay:10.37,2013-03-14 21:37:00,
2013-03-14 16:42:00,49.5,26.7,30.05,SE,135,3.1,5.8,41,0.00,OVC,FEW,0.00,WeatherDisplay:10.37,2013-03-14 21:42:00,
2013-03-14 16:48:00,49.5,26.1,30.05,East,90,1.6,5.8,40,0.00,OVC,FEW,0.00,WeatherDisplay:10.37,2013-03-14 21:48:00,
2013-03-14 16:53:00,49.3,26.5,30.04,SE,135,2.2,4.6,41,0.00,OVC,FEW,0.00,WeatherDisplay:10.37,2013-03-14 21:53:00,
2013-03-14 16:59:00,50.2,26.8,30.05,SE,135,1.6,3.5,40,0.00,OVC,FEW,0.00,WeatherDisplay:10.37,2013-03-14 21:59:00,
2013-03-14 17:05:00,49.5,26.1,30.04,East,90,3.1,5.8,40,0.00,OVC,FEW,0.00,WeatherDisplay:10.37,2013-03-14 22:05:00,
2013-03-14 17:10:00,48.9,26.2,30.03,East,90,0.7,6.9,41,0.00,OVC,FEW,0.00,WeatherDisplay:10.37,2013-03-14 22:10:00,
2013-03-14 17:16:00,48.4,26.3,30.04,NE,45,3.1,5.8,42,0.00,OVC,FEW,0.00,WeatherDisplay:10.37,2013-03-14 22:16:00,
2013-03-14 17:21:00,48.6,26.5,30.05,SE,135,1.6,3.5,42,0.00,OVC,FEW,0.00,WeatherDisplay:10.37,2013-03-14 22:21:00,
2013-03-14 17:27:00,48.4,25.7,30.04,SE,135,3.1,3.5,41,0.00,OVC,FEW,0.00,WeatherDisplay:10.37,2013-03-14 22:27:00,
2013-03-14 17:33:00,47.3,25.9,30.04,East,90,0.7,4.6,43,0.00,OVC,FEW,0.00,WeatherDisplay:10.37,2013-03-14 22:33:00,
2013-03-14 17:38:00,47.1,25.7,30.03,East,90,2.2,4.5,43,0.00,OVC,FEW,0.00,WeatherDisplay:10.37,2013-03-14 22:38:00,
2013-03-14 17:44:00,46.9,26.1,30.03,SE,135,1.6,3.1,44,0.00,OVC,FEW,0.00,WeatherDisplay:10.37,2013-03-14 22:44:00,
2013-03-14 17:49:00,46.6,26.4,30.03,NE,45,0.7,3.5,45,0.00,OVC,FEW,0.00,WeatherDisplay:10.37,2013-03-14 22:49:00,
2013-03-14 17:55:00,46.2,26.0,30.04,SW,225,1.6,3.1,45,0.00,OVC,FEW,0.00,WeatherDisplay:10.37,2013-03-14 22:55:00,
2013-03-14 18:01:00,45.7,26.1,30.05,SE,135,1.6,5.8,46,0.00,OVC,FEW,0.00,WeatherDisplay:10.37,2013-03-14 23:01:00,
2013-03-14 18:06:00,45.1,25.6,30.05,South,180,2.2,4.6,46,0.00,OVC,FEW,0.00,WeatherDisplay:10.37,2013-03-14 23:06:00,
2013-03-14 18:12:00,45.1,26.1,30.05,North,0,0.7,3.5,47,0.00,OVC,FEW,0.00,WeatherDisplay:10.37,2013-03-14 23:12:00,
2013-03-14 18:17:00,45.0,25.9,30.05,East,90,0.0,2.3,47,0.00,OVC,FEW,0.00,WeatherDisplay:10.37,2013-03-14 23:17:00,
2013-03-14 18:23:00,45.0,26.4,30.06,SE,135,0.7,2.3,48,0.00,OVC,FEW,0.00,WeatherDisplay:10.37,2013-03-14 23:23:00,
2013-03-14 18:29:00,44.6,26.6,30.06,East,90,0.7,3.5,49,0.00,OVC,FEW,0.00,WeatherDisplay:10.37,2013-03-14 23:29:00,
2013-03-14 18:34:00,44.2,26.8,30.06,East,90,0.7,2.3,50,0.00,OVC,FEW,0.00,WeatherDisplay:10.37,2013-03-14 23:34:00,
2013-03-14 18:40:00,43.9,26.9,30.05,East,90,0.7,2.3,51,0.00,OVC,FEW,0.00,WeatherDisplay:10.37,2013-03-14 23:40:00,
2013-03-14 18:45:00,43.5,26.6,30.05,East,90,1.6,3.8,51,0.00,OVC,FEW,0.00,WeatherDisplay:10.37,2013-03-14 23:45:00,
2013-03-14 18:52:00,43.3,26.9,30.06,SE,135,0.7,2.3,52,0.00,OVC,FEW,0.00,WeatherDisplay:10.37,2013-03-14 23:52:00,
2013-03-14 18:57:00,43.2,26.7,30.06,NE,45,0.0,1.2,52,0.00,OVC,FEW,0.00,WeatherDisplay:10.37,2013-03-14 23:57:00,
2013-03-14 19:03:00,42.8,26.8,30.06,ESE,112,1.6,4.6,53,0.00,OVC,FEW,0.00,WeatherDisplay:10.37,2013-03-15 00:03:00,
2013-03-14 19:09:00,42.6,27.1,30.06,East,90,0.0,2.3,54,0.00,OVC,FEW,0.00,WeatherDisplay:10.37,2013-03-15 00:09:00,
2013-03-14 19:14:00,42.1,27.1,30.06,East,90,0.7,3.5,55,0.00,OVC,FEW,0.00,WeatherDisplay:10.37,2013-03-15 00:14:00,
2013-03-14 19:20:00,41.9,26.9,30.06,East,90,0.7,3.5,55,0.00,OVC,FEW,0.00,WeatherDisplay:10.37,2013-03-15 00:20:00,
2013-03-14 19:25:00,41.7,26.7,30.06,East,90,0.7,2.3,55,0.00,OVC,FEW,0.00,WeatherDisplay:10.37,2013-03-15 00:25:00,
2013-03-14 19:31:00,41.4,26.8,30.05,SE,135,0.7,3.5,56,0.00,OVC,FEW,0.00,WeatherDisplay:10.37,2013-03-15 00:31:00,
2013-03-14 19:37:00,41.0,26.9,30.05,East,90,0.0,2.3,57,0.00,OVC,FEW,0.00,WeatherDisplay:10.37,2013-03-15 00:37:00,
2013-03-14 19:42:00,40.8,26.7,30.05,East,90,0.7,3.5,57,0.00,OVC,FEW,0.00,WeatherDisplay:10.37,2013-03-15 00:42:00,
2013-03-14 19:48:00,40.6,27.0,30.05,SE,135,1.6,3.5,58,0.00,OVC,FEW,0.00,WeatherDisplay:10.37,2013-03-15 00:48:00,
2013-03-14 19:53:00,40.5,26.8,30.05,East,90,0.0,1.2,58,0.00,OVC,FEW,0.00,WeatherDisplay:10.37,2013-03-15 00:53:00,
2013-03-14 19:59:00,40.1,26.5,30.05,East,90,0.0,1.2,58,0.00,OVC,FEW,0.00,WeatherDisplay:10.37,2013-03-15 00:59:00,
2013-03-14 20:05:00,39.7,26.6,30.05,East,90,0.0,2.3,59,0.00,OVC,FEW,0.00,WeatherDisplay:10.37,2013-03-15 01:05:00,
2013-03-14 20:10:00,39.6,26.8,30.05,NE,45,0.0,1.2,60,0.00,OVC,FEW,0.00,WeatherDisplay:10.37,2013-03-15 01:10:00,
2013-03-14 20:16:00,39.6,26.8,30.05,NE,45,0.7,1.6,60,0.00,OVC,FEW,0.00,WeatherDisplay:10.37,2013-03-15 01:16:00,
2013-03-14 20:21:00,39.4,26.6,30.05,East,90,0.7,2.3,60,0.00,OVC,FEW,0.00,WeatherDisplay:10.37,2013-03-15 01:21:00,
2013-03-14 20:27:00,39.0,26.7,30.05,NE,45,0.0,1.2,61,0.00,OVC,FEW,0.00,WeatherDisplay:10.37,2013-03-15 01:27:00,
2013-03-14 20:33:00,39.0,26.7,30.04,NE,45,0.0,1.2,61,0.00,OVC,FEW,0.00,WeatherDisplay:10.37,2013-03-15 01:33:00,
2013-03-14 20:38:00,38.8,26.9,30.04,East,90,0.7,2.2,62,0.00,OVC,FEW,0.00,WeatherDisplay:10.37,2013-03-15 01:38:00,
2013-03-14 20:44:00,38.7,26.8,30.04,East,90,0.0,1.2,62,0.00,OVC,FEW,0.00,WeatherDisplay:10.37,2013-03-15 01:44:00,
2013-03-14 20:49:00,38.5,26.6,30.04,East,90,0.0,1.2,62,0.00,OVC,FEW,0.00,WeatherDisplay:10.37,2013-03-15 01:49:00,
2013-03-14 20:55:00,38.1,26.2,30.03,East,90,0.0,1.2,62,0.00,OVC,FEW,0.00,WeatherDisplay:10.37,2013-03-15 01:55:00,
2013-03-14 21:01:00,37.6,26.1,30.04,North,0,0.0,0.0,63,0.00,OVC,FEW,0.00,WeatherDisplay:10.37,2013-03-15 02:01:00,
2013-03-14 21:06:00,37.4,25.9,30.04,North,0,0.0,1.2,63,0.00,OVC,FEW,0.00,WeatherDisplay:10.37,2013-03-15 02:06:00,
2013-03-14 21:12:00,37.2,25.8,30.03,North,0,0.0,0.0,63,0.00,OVC,FEW,0.00,WeatherDisplay:10.37,2013-03-15 02:12:00,
2013-03-14 21:17:00,36.9,25.8,30.04,North,0,0.0,0.0,64,0.00,OVC,FEW,0.00,WeatherDisplay:10.37,2013-03-15 02:17:00,
2013-03-14 21:23:00,36.5,25.5,30.03,North,0,0.0,0.0,64,0.00,OVC,FEW,0.00,WeatherDisplay:10.37,2013-03-15 02:23:00,
2013-03-14 21:29:00,36.1,25.9,30.04,North,0,0.0,0.0,66,0.00,OVC,FEW,0.00,WeatherDisplay:10.37,2013-03-15 02:29:00,
2013-03-14 21:34:00,36.0,26.1,30.04,North,0,0.0,0.0,67,0.00,OVC,FEW,0.00,WeatherDisplay:10.37,2013-03-15 02:34:00,
2013-03-14 21:40:00,35.6,25.7,30.04,North,0,0.0,0.0,67,0.00,OVC,FEW,0.00,WeatherDisplay:10.37,2013-03-15 02:40:00,
2013-03-14 21:45:00,35.4,26.3,30.03,South,180,0.0,0.0,69,0.00,OVC,FEW,0.00,WeatherDisplay:10.37,2013-03-15 02:45:00,
2013-03-14 21:51:00,35.2,26.4,30.03,SE,135,0.0,1.2,70,0.00,OVC,FEW,0.00,WeatherDisplay:10.37,2013-03-15 02:51:00,
2013-03-14 21:57:00,35.2,26.8,30.03,South,180,0.0,0.0,71,0.00,OVC,FEW,0.00,WeatherDisplay:10.37,2013-03-15 02:57:00,
2013-03-14 22:02:00,34.9,26.8,30.02,South,180,0.0,1.2,72,0.00,OVC,FEW,0.00,WeatherDisplay:10.37,2013-03-15 03:02:00,
2013-03-14 22:08:00,34.3,26.6,30.02,South,180,0.0,0.0,73,0.00,OVC,FEW,0.00,WeatherDisplay:10.37,2013-03-15 03:08:00,
2013-03-14 22:13:00,34.3,26.9,30.02,SE,135,0.0,1.2,74,0.00,OVC,FEW,0.00,WeatherDisplay:10.37,2013-03-15 03:13:00,
2013-03-14 22:19:00,34.0,27.2,30.01,SE,135,0.0,1.2,76,0.00,OVC,FEW,0.00,WeatherDisplay:10.37,2013-03-15 03:19:00,
2013-03-14 22:25:00,34.0,27.5,30.01,SE,135,0.0,1.2,77,0.00,OVC,FEW,0.00,WeatherDisplay:10.37,2013-03-15 03:25:00,
2013-03-14 22:30:00,34.2,27.7,30.00,SE,135,0.0,1.2,77,0.00,OVC,FEW,0.00,WeatherDisplay:10.37,2013-03-15 03:30:00,
2013-03-14 22:37:00,34.2,28.0,30.00,SE,135,0.7,2.2,78,0.00,OVC,FEW,0.00,WeatherDisplay:10.37,2013-03-15 03:37:00,
2013-03-14 22:42:00,34.3,28.2,30.00,SE,135,0.0,1.6,78,0.00,OVC,FEW,0.00,WeatherDisplay:10.37,2013-03-15 03:42:00,
2013-03-14 22:48:00,34.3,27.9,29.99,SE,135,0.0,2.3,77,0.00,OVC,FEW,0.00,WeatherDisplay:10.37,2013-03-15 03:48:00,
2013-03-14 22:53:00,34.0,27.5,30.00,South,180,0.0,1.2,77,0.00,OVC,FEW,0.00,WeatherDisplay:10.37,2013-03-15 03:53:00,
2013-03-14 22:59:00,33.8,27.7,30.00,SW,225,0.0,0.0,78,0.00,OVC,FEW,0.00,WeatherDisplay:10.37,2013-03-15 03:59:00,
2013-03-14 23:00:00,33.8,27.7,30.00,South,180,0.0,1.2,78,0.00,OVC,FEW,0.00,WeatherDisplay:10.37,2013-03-15 04:00:00,
2013-03-14 23:01:00,33.8,27.7,30.00,SW,225,0.0,1.2,78,0.00,OVC,FEW,0.00,WeatherDisplay:10.37,2013-03-15 04:01:00,
2013-03-14 23:07:00,33.8,28.0,30.00,South,180,0.0,1.2,79,0.00,OVC,FEW,0.00,WeatherDisplay:10.37,2013-03-15 04:07:00,
2013-03-14 23:13:00,34.0,28.2,30.00,South,180,0.0,0.0,79,0.00,OVC,FEW,0.00,WeatherDisplay:10.37,2013-03-15 04:13:00,
2013-03-14 23:17:00,34.0,28.2,30.00,South,180,0.0,0.0,79,0.00,OVC,FEW,0.00,WeatherDisplay:10.37,2013-03-15 04:17:00,
2013-03-14 23:22:00,33.8,28.0,30.00,SW,225,0.0,0.0,79,0.00,OVC,FEW,0.00,WeatherDisplay:10.37,2013-03-15 04:22:00,
2013-03-14 23:28:00,33.8,28.3,30.00,South,180,0.0,1.2,80,0.00,OVC,FEW,0.00,WeatherDisplay:10.37,2013-03-15 04:28:00,
2013-03-14 23:33:00,33.8,28.0,29.99,South,180,0.0,0.0,79,0.00,OVC,FEW,0.00,WeatherDisplay:10.37,2013-03-15 04:33:00,
2013-03-14 23:39:00,33.8,28.0,29.99,South,180,0.0,1.2,79,0.00,OVC,FEW,0.00,WeatherDisplay:10.37,2013-03-15 04:39:00,
2013-03-14 23:45:00,33.8,28.3,29.99,SW,225,0.0,0.0,80,0.00,OVC,FEW,0.00,WeatherDisplay:10.37,2013-03-15 04:45:00,
2013-03-14 23:50:00,33.6,28.1,30.00,SW,225,0.0,0.0,80,0.00,OVC,FEW,0.00,WeatherDisplay:10.37,2013-03-15 04:50:00,
2013-03-14 23:56:00,33.6,28.1,30.00,SW,225,0.0,0.0,80,0.00,OVC,FEW,0.00,WeatherDisplay:10.37,2013-03-15 04:56:00,